IU1FIL-3 Weather Reports


time (UTC)temp
C
wind
direction
speed
KPH
gust
KPH
rain 1hr
cm
rain 24hr
cm
rain mn
cm
humidity
%
barometer
mb
20260507182739 15 0.0 0.0 0.00 0.00 0.00 10 1015.6
20260507181738 15 0.0 0.0 0.00 0.00 0.00 10 1015.4
20260507180736 16 0.0 0.0 0.00 0.00 0.00 10 1015.2
20260507175734 16 0.0 0.0 0.00 0.00 0.00 10 1015.2
20260507174733 17 0.0 0.0 0.00 0.00 0.00 10 1014.7
20260507173731 18 0.0 0.0 0.00 0.00 0.00 10 1014.6
20260507172729 21 0.0 0.0 0.00 0.00 0.00 10 1014.2
20260507171727 18 0.0 0.0 0.00 0.00 0.00 10 1014.7
20260507170725 16 0.0 0.0 0.00 0.00 0.00 10 1015.4
20260507165723 16 0.0 0.0 0.00 0.00 0.00 10 1015.2
20260507164721 16 0.0 0.0 0.00 0.00 0.00 10 1015.1
20260507163719 21 0.0 0.0 0.00 0.00 0.00 10 1014.2
20260507162717 18 0.0 0.0 0.00 0.00 0.00 10 1014.7
20260507161716 17 0.0 0.0 0.00 0.00 0.00 10 1014.8
20260507160714 17 0.0 0.0 0.00 0.00 0.00 10 1014.9
20260507155712 16 0.0 0.0 0.00 0.00 0.00 10 1014.9
20260507154710 17 0.0 0.0 0.00 0.00 0.00 10 1014.9
20260507153709 17 0.0 0.0 0.00 0.00 0.00 10 1014.7
20260507152707 17 0.0 0.0 0.00 0.00 0.00 10 1014.6
20260507151706 19 0.0 0.0 0.00 0.00 0.00 10 1014.1
20260507150703 18 0.0 0.0 0.00 0.00 0.00 10 1014.4
20260507145701 17 0.0 0.0 0.00 0.00 0.00 10 1014.8
20260507144659 17 0.0 0.0 0.00 0.00 0.00 10 1014.8
20260507143657 16 0.0 0.0 0.00 0.00 0.00 10 1014.9
20260507142655 17 0.0 0.0 0.00 0.00 0.00 10 1015.0
20260507141653 17 0.0 0.0 0.00 0.00 0.00 10 1015.0
20260507140650 18 0.0 0.0 0.00 0.00 0.00 10 1014.7
20260507135649 18 0.0 0.0 0.00 0.00 0.00 10 1014.7
20260507134647 17 0.0 0.0 0.00 0.00 0.00 10 1015.0
20260507133645 16 0.0 0.0 0.00 0.00 0.00 10 1015.4
20260507132643 15 0.0 0.0 0.00 0.00 0.00 10 1015.7
20260507131643 16 0.0 0.0 0.00 0.00 0.00 10 1015.6
20260507130639 16 0.0 0.0 0.00 0.00 0.00 10 1015.5
20260507125637 16 0.0 0.0 0.00 0.00 0.00 10 1015.4
20260507124634 16 0.0 0.0 0.00 0.00 0.00 10 1015.2
20260507123632 16 0.0 0.0 0.00 0.00 0.00 10 1015.3
20260507122630 17 0.0 0.0 0.00 0.00 0.00 10 1015.0
20260507121628 17 0.0 0.0 0.00 0.00 0.00 10 1015.0
20260507120626 17 0.0 0.0 0.00 0.00 0.00 10 1015.0
20260507115624 16 0.0 0.0 0.00 0.00 0.00 10 1015.1
20260507114622 17 0.0 0.0 0.00 0.00 0.00 10 1014.9
20260507113621 17 0.0 0.0 0.00 0.00 0.00 10 1014.9
20260507112619 17 0.0 0.0 0.00 0.00 0.00 10 1015.0
20260507111616 18 0.0 0.0 0.00 0.00 0.00 10 1014.8
20260507110614 18 0.0 0.0 0.00 0.00 0.00 10 1014.8
20260507105613 18 0.0 0.0 0.00 0.00 0.00 10 1014.8
20260507104610 18 0.0 0.0 0.00 0.00 0.00 10 1014.8
20260507103608 17 0.0 0.0 0.00 0.00 0.00 10 1015.0
20260507102606 18 0.0 0.0 0.00 0.00 0.00 10 1014.9
20260507101604 18 0.0 0.0 0.00 0.00 0.00 10 1015.0
20260507100603 17 0.0 0.0 0.00 0.00 0.00 10 1015.1
20260507095602 18 0.0 0.0 0.00 0.00 0.00 10 1015.1
20260507094600 17 0.0 0.0 0.00 0.00 0.00 10 1015.0
20260507093558 17 0.0 0.0 0.00 0.00 0.00 10 1015.0
20260507092556 17 0.0 0.0 0.00 0.00 0.00 10 1015.0
20260507091554 17 0.0 0.0 0.00 0.00 0.00 10 1014.8
20260507090553 17 0.0 0.0 0.00 0.00 0.00 10 1014.9
20260507085551 16 0.0 0.0 0.00 0.00 0.00 10 1014.9
20260507084549 16 0.0 0.0 0.00 0.00 0.00 10 1014.8
20260507083547 16 0.0 0.0 0.00 0.00 0.00 10 1014.7
20260507082546 16 0.0 0.0 0.00 0.00 0.00 10 1014.7
20260507081543 16 0.0 0.0 0.00 0.00 0.00 10 1014.6
20260507080541 16 0.0 0.0 0.00 0.00 0.00 10 1014.7
20260507075539 15 0.0 0.0 0.00 0.00 0.00 10 1014.9
20260507074537 15 0.0 0.0 0.00 0.00 0.00 10 1015.0
20260507073535 13 0.0 0.0 0.00 0.00 0.00 10 1015.2
20260507072534 14 0.0 0.0 0.00 0.00 0.00 10 1015.2
20260507071532 13 0.0 0.0 0.00 0.00 0.00 10 1015.1
20260507070530 13 0.0 0.0 0.00 0.00 0.00 10 1015.2
20260507065528 12 0.0 0.0 0.00 0.00 0.00 10 1015.2
20260507064525 12 0.0 0.0 0.00 0.00 0.00 10 1015.1
20260507063523 12 0.0 0.0 0.00 0.00 0.00 10 1015.0
20260507062521 12 0.0 0.0 0.00 0.00 0.00 10 1015.0
20260507061519 12 0.0 0.0 0.00 0.00 0.00 10 1014.9
20260507060517 12 0.0 0.0 0.00 0.00 0.00 10 1014.9
20260507055517 11 0.0 0.0 0.00 0.00 0.00 10 1014.9
20260507054514 11 0.0 0.0 0.00 0.00 0.00 10 1014.8
20260507053512 11 0.0 0.0 0.00 0.00 0.00 10 1014.6
20260507052510 11 0.0 0.0 0.00 0.00 0.00 10 1014.6
20260507051508 11 0.0 0.0 0.00 0.00 0.00 10 1014.5
20260507050506 11 0.0 0.0 0.00 0.00 0.00 10 1014.3
20260507045505 11 0.0 0.0 0.00 0.00 0.00 10 1014.3
20260507044504 11 0.0 0.0 0.00 0.00 0.00 10 1014.3
20260507043501 11 0.0 0.0 0.00 0.00 0.00 10 1014.3
20260507042459 11 0.0 0.0 0.00 0.00 0.00 10 1014.1
20260507041457 11 0.0 0.0 0.00 0.00 0.00 10 1014.2
20260507040455 11 0.0 0.0 0.00 0.00 0.00 10 1014.2
20260507035454 11 0.0 0.0 0.00 0.00 0.00 10 1014.1
20260507034452 11 0.0 0.0 0.00 0.00 0.00 10 1013.9
20260507033451 11 0.0 0.0 0.00 0.00 0.00 10 1013.9
20260507032449 11 0.0 0.0 0.00 0.00 0.00 10 1013.8
20260507031448 11 0.0 0.0 0.00 0.00 0.00 10 1013.9
20260507030445 10 0.0 0.0 0.00 0.00 0.00 10 1013.8
20260507025443 11 0.0 0.0 0.00 0.00 0.00 10 1013.8
20260507024442 11 0.0 0.0 0.00 0.00 0.00 10 1013.7
20260507023440 11 0.0 0.0 0.00 0.00 0.00 10 1013.7
20260507022439 11 0.0 0.0 0.00 0.00 0.00 10 1013.6
20260507021437 11 0.0 0.0 0.00 0.00 0.00 10 1013.5
20260507020435 11 0.0 0.0 0.00 0.00 0.00 10 1013.5
20260507015434 11 0.0 0.0 0.00 0.00 0.00 10 1013.5
20260507014432 11 0.0 0.0 0.00 0.00 0.00 10 1013.4
20260507013430 11 0.0 0.0 0.00 0.00 0.00 10 1013.2
20260507012428 11 0.0 0.0 0.00 0.00 0.00 10 1013.2
20260507011427 11 0.0 0.0 0.00 0.00 0.00 10 1013.3
20260507010425 11 0.0 0.0 0.00 0.00 0.00 10 1013.3
20260507005423 11 0.0 0.0 0.00 0.00 0.00 10 1013.4
20260507004421 11 0.0 0.0 0.00 0.00 0.00 10 1013.3
20260507003420 11 0.0 0.0 0.00 0.00 0.00 10 1013.3
20260507002418 12 0.0 0.0 0.00 0.00 0.00 10 1013.2
20260507001416 12 0.0 0.0 0.00 0.00 0.00 10 1013.2
20260507000415 12 0.0 0.0 0.00 0.00 0.00 10 1013.1
20260506235412 12 0.0 0.0 0.00 0.00 0.00 10 1013.1
20260506234411 12 0.0 0.0 0.00 0.00 0.00 10 1013.0
20260506233409 12 0.0 0.0 0.00 0.00 0.00 10 1013.1
20260506232407 12 0.0 0.0 0.00 0.00 0.00 10 1013.3
20260506231405 12 0.0 0.0 0.00 0.00 0.00 10 1013.3
20260506230403 12 0.0 0.0 0.00 0.00 0.00 10 1013.4
20260506225401 12 0.0 0.0 0.00 0.00 0.00 10 1013.4
20260506224359 12 0.0 0.0 0.00 0.00 0.00 10 1013.3
20260506223357 12 0.0 0.0 0.00 0.00 0.00 10 1013.2
20260506222355 12 0.0 0.0 0.00 0.00 0.00 10 1013.2
20260506221353 12 0.0 0.0 0.00 0.00 0.00 10 1013.2
20260506220351 12 0.0 0.0 0.00 0.00 0.00 10 1013.1
20260506215804 12 0.0 0.0 0.00 0.00 0.00 10 1013.1
20260506214802 12 0.0 0.0 0.00 0.00 0.00 10 1013.1
20260506213800 13 0.0 0.0 0.00 0.00 0.00 10 1013.0
20260506212758 13 0.0 0.0 0.00 0.00 0.00 10 1013.0
20260506211756 13 0.0 0.0 0.00 0.00 0.00 10 1012.9
20260506210754 13 0.0 0.0 0.00 0.00 0.00 10 1012.8
20260506205752 13 0.0 0.0 0.00 0.00 0.00 10 1012.7
20260506204751 13 0.0 0.0 0.00 0.00 0.00 10 1012.6
20260506203749 13 0.0 0.0 0.00 0.00 0.00 10 1012.6
20260506202746 14 0.0 0.0 0.00 0.00 0.00 10 1012.5
20260506201745 14 0.0 0.0 0.00 0.00 0.00 10 1012.5
20260506200743 13 0.0 0.0 0.00 0.00 0.00 10 1012.3
20260506195742 13 0.0 0.0 0.00 0.00 0.00 10 1012.2
20260506194740 14 0.0 0.0 0.00 0.00 0.00 10 1012.0
20260506193737 14 0.0 0.0 0.00 0.00 0.00 10 1011.9
20260506192736 14 0.0 0.0 0.00 0.00 0.00 10 1011.7
20260506191733 15 0.0 0.0 0.00 0.00 0.00 10 1011.4
20260506190732 15 0.0 0.0 0.00 0.00 0.00 10 1011.2
20260506185731 15 0.0 0.0 0.00 0.00 0.00 10 1010.8
20260506184729 15 0.0 0.0 0.00 0.00 0.00 10 1010.6
20260506183727 16 0.0 0.0 0.00 0.00 0.00 10 1010.4